This is the latest recevied weather packets stored in our database for station/object K8WEH. If no packets are shown the sender has not sent any weather packets the latest 10 day(s).
| Time | Temp. | Humidity | Pressure | Rain* | Wind** | Luminosity | Snow |
|---|---|---|---|---|---|---|---|
| 1777342528 | 17.22° C | 52% | 1017.1 hPa | 1.52 mm | - | - | - |
| 1777342224 | 17.22° C | 55% | 1017.3 hPa | 1.27 mm | - | - | - |
| 1777341924 | 17.22° C | 58% | 1017.2 hPa | 0.76 mm | - | - | - |
| 1777341624 | 17.22° C | 60% | 1016.7 hPa | 0.51 mm | - | - | - |
| 1777341323 | 17.78° C | 62% | 1016.5 hPa | 0.51 mm | - | - | - |
| 1777341025 | 17.78° C | 65% | 1016.1 hPa | 0.51 mm | - | - | - |
| 1777340723 | 17.78° C | 69% | 1015.8 hPa | 0.25 mm | - | - | - |
| 1777340423 | 18.33° C | 70% | 1015.7 hPa | 0.25 mm | - | - | - |
| 1777340121 | 18.33° C | 72% | 1015.6 hPa | 0.25 mm | - | - | - |
| 1777339822 | 18.33° C | 73% | 1015.4 hPa | 0.25 mm | - | - | - |
| 1777339524 | 18.89° C | 74% | 1015.4 hPa | 0.25 mm | - | - | - |
| 1777339224 | 18.89° C | 74% | 1015.5 hPa | 0 mm | - | - | - |
| 1777338923 | 18.89° C | 74% | 1015.6 hPa | 0 mm | - | - | - |
| 1777338623 | 18.89° C | 74% | 1015.5 hPa | 0 mm | - | - | - |
| 1777338322 | 18.89° C | 73% | 1015.3 hPa | 0 mm | - | - | - |
| 1777338026 | 18.89° C | 73% | 1015 hPa | 0 mm | - | - | - |
| 1777337723 | 19.44° C | 73% | 1014.8 hPa | 0 mm | - | - | - |
| 1777337420 | 19.44° C | 72% | 1014.4 hPa | 0 mm | - | - | - |
| 1777337121 | 19.44° C | 72% | 1014.2 hPa | 0 mm | - | - | - |
| 1777336821 | 20° C | 72% | 1014.1 hPa | 0 mm | - | - | - |
| 1777336521 | 20° C | 71% | 1013.9 hPa | 0 mm | - | - | - |
| 1777336229 | 20° C | 70% | 1014 hPa | 0 mm | - | - | - |
| 1777335920 | 20° C | 70% | 1014.5 hPa | 0 mm | - | - | - |
| 1777335619 | 20° C | 70% | 1014.9 hPa | 0 mm | - | - | - |
| 1777335330 | 20.56° C | 69% | 1014.6 hPa | 0 mm | - | - | - |
* Rain latest hour (hover to see other rain measurements)
** Current wind speed in m/s (hover to see current wind gust speed)